Asheboro, NC

1:43 PM EST on December 10, 2016 (GMT -0500)
Asheboro Municipal

Weather History for KHBI - January, 2015

Change the Weather History Date:

Sunday, January 18, 2015

  Actual Average Record
Temperature  
Mean Temperature 46 °F -  
Max Temperature 57 °F 48 °F 75 °F (1943)
Min Temperature 36 °F 30 °F 10 °F (1977)
Degree Days  
Heating Degree Days 20    
Moisture  
Dew Point 36 °F    
Average Humidity 70    
Maximum Humidity 100    
Minimum Humidity 33    
Precipitation  
Precipitation 0.08 in - - ()
Sea Level Pressure  
Sea Level Pressure 30.00 in    
Wind  
Wind Speed 4 mph (WSW)    
Max Wind Speed 15 mph    
Max Gust Speed 22 mph    
Visibility 8 miles    
Events Fog , Rain    
Averages and records for this station are not official NWS values.
T = Trace of Precipitation, MM = Missing Value Source: NWS Daily Summary

Daily Weather History Graph

Daily Weather History Graph

Search for Another Location

Airport or City:

Trip Planner

Search our weather history database for the weather conditions in past years. The results will help you decide how hot, cold, wet, or windy it might be!

Date:

Astronomy

Jan. 18, 2015 Rise Set
Actual Time 7:27 AM EST 5:32 PM EST
Civil Twilight 7:00 AM EST 6:00 PM EST
Nautical Twilight 6:28 AM EST 6:31 PM EST
Astronomical Twilight 5:58 AM EST 7:01 PM EST
Moon 5:22 AM EST (1/18) 3:54 PM EST (1/18)
Length of Visible Light 11h 00m
Length of Day
10h 04m
Waning Crescent, 5% of the Moon is Illuminated
Jan 18
Waning Crescent
Jan 20
New
Jan 26
First Quarter
Feb 3
Full
Feb 11
Last Quarter

Hourly Weather History & Observations

Time (EST) Temp. Windchill Dew Point Humidity Pressure Visibility Wind Dir Wind Speed Gust Speed Precip Events Conditions
12:15 AM 45.5 °F 44.2 °F 36.0 °F 69% 30.17 in 10.0 mi South 3.5 mph - N/A   Overcast
12:35 AM 45.7 °F 43.4 °F 37.4 °F 73% 30.16 in 10.0 mi SSE 4.6 mph - N/A   Overcast
12:55 AM 46.4 °F 44.3 °F 38.3 °F 73% 30.16 in 10.0 mi South 4.6 mph - N/A   Overcast
1:15 AM 45.7 °F - 38.5 °F 76% 30.14 in 10.0 mi Calm Calm - N/A   Overcast
1:35 AM 45.1 °F - 38.3 °F 77% 30.14 in 10.0 mi Calm Calm - N/A   Overcast
1:55 AM 45.0 °F - 39.6 °F 81% 30.13 in 7.0 mi Calm Calm - 0.01 in Rain Light Rain
2:15 AM 42.8 °F 41.1 °F 41.7 °F 96% 30.12 in 7.0 mi ESE 3.5 mph - N/A Rain Light Rain
2:35 AM 43.2 °F 41.5 °F 42.8 °F 99% 30.11 in 5.0 mi SE 3.5 mph - 0.02 in Rain Light Rain
2:55 AM 43.2 °F - 42.4 °F 97% 30.09 in 5.0 mi Calm Calm - 0.04 in Rain Light Rain
3:15 AM 42.8 °F - 42.8 °F 100% 30.09 in 5.0 mi Calm Calm - N/A   Overcast
3:35 AM 42.8 °F - 42.8 °F 100% 30.08 in 4.0 mi Calm Calm - N/A   Overcast
3:55 AM 42.6 °F - 42.6 °F 100% 30.07 in 2.5 mi Calm Calm - 0.02 in Rain Rain
4:15 AM 42.8 °F - 42.8 °F 100% 30.06 in 3.0 mi Calm Calm - N/A   Overcast
4:35 AM 42.4 °F - 42.4 °F 100% 30.06 in 2.5 mi Calm Calm - N/A   Overcast
4:55 AM 42.4 °F - 42.4 °F 100% 30.05 in 3.0 mi Calm Calm - N/A Rain Light Rain
5:15 AM 42.8 °F - 42.8 °F 100% 30.04 in 4.0 mi Calm Calm - N/A   Overcast
5:35 AM 42.8 °F - 42.8 °F 100% 30.04 in 3.0 mi Calm Calm - N/A   Drizzle
5:55 AM 42.6 °F - 42.6 °F 100% 30.03 in 5.0 mi Calm Calm - N/A Rain Light Rain
6:15 AM 42.6 °F - 42.6 °F 100% 30.01 in 5.0 mi Calm Calm - N/A   Overcast
6:35 AM 42.8 °F - 42.8 °F 100% 30.02 in 4.0 mi Calm Calm - 0.01 in   Overcast
6:55 AM 42.4 °F - 42.4 °F 100% 30.02 in 3.0 mi Calm Calm - 0.01 in   Overcast
7:15 AM 42.4 °F - 42.4 °F 100% 30.01 in 3.0 mi Calm Calm - N/A   Overcast
7:35 AM 42.4 °F - 42.4 °F 100% 29.99 in 2.5 mi Calm Calm - N/A   Overcast
7:55 AM 41.7 °F - 41.7 °F 100% 29.99 in 0.5 mi Calm Calm - N/A Fog Fog
8:15 AM 41.0 °F 39.0 °F 41.0 °F 100% 29.99 in 0.2 mi SE 3.5 mph - N/A Fog Fog
8:35 AM 41.4 °F - 41.4 °F 100% 29.99 in 1.2 mi Calm Calm - N/A   Scattered Clouds
8:55 AM 42.4 °F 40.7 °F 42.4 °F 100% 30.01 in 5.0 mi SE 3.5 mph - N/A   Scattered Clouds
9:15 AM 43.2 °F 40.5 °F 43.2 °F 100% 30.00 in 7.0 mi South 4.6 mph - N/A   Mostly Cloudy
9:35 AM 45.3 °F 41.1 °F 44.6 °F 97% 29.99 in 10.0 mi SSW 8.1 mph - N/A   Scattered Clouds
9:55 AM 47.5 °F - 44.1 °F 88% 29.98 in 10.0 mi SSW 10.4 mph - N/A   Clear
10:15 AM 48.7 °F - 44.2 °F 84% 29.97 in 10.0 mi SSW 13.8 mph 17.3 mph N/A   Clear
10:35 AM 49.1 °F - 44.6 °F 84% 29.95 in 10.0 mi SSW 10.4 mph - N/A   Clear
10:55 AM 49.6 °F - 45.0 °F 84% 29.94 in 10.0 mi SW 13.8 mph 17.3 mph N/A   Clear
11:15 AM 50.9 °F - 44.2 °F 78% 29.94 in 10.0 mi SW 15.0 mph 19.6 mph N/A   Scattered Clouds
11:35 AM 51.4 °F - 44.6 °F 77% 29.93 in 10.0 mi SW 8.1 mph - N/A   Scattered Clouds
11:55 AM 52.3 °F - 43.7 °F 72% 29.91 in 10.0 mi WSW 10.4 mph 16.1 mph N/A   Scattered Clouds
12:15 PM 53.6 °F - 43.2 °F 68% 29.90 in 10.0 mi WSW 8.1 mph 17.3 mph N/A   Scattered Clouds
12:35 PM 54.5 °F - 42.3 °F 63% 29.89 in 10.0 mi SW 8.1 mph 17.3 mph N/A   Clear
12:55 PM 55.2 °F - 41.0 °F 59% 29.88 in 10.0 mi WSW 9.2 mph 16.1 mph N/A   Clear
1:15 PM 55.0 °F - 40.3 °F 58% 29.87 in 10.0 mi West 11.5 mph 17.3 mph N/A   Scattered Clouds
1:35 PM 55.6 °F - 39.9 °F 56% 29.87 in 10.0 mi West 10.4 mph 16.1 mph N/A   Scattered Clouds
1:55 PM 55.9 °F - 37.8 °F 51% 29.86 in 10.0 mi WSW 8.1 mph - N/A   Scattered Clouds
2:15 PM 55.6 °F - 35.2 °F 46% 29.87 in 10.0 mi WNW 9.2 mph 20.7 mph N/A   Mostly Cloudy
2:35 PM 55.6 °F - 35.6 °F 47% 29.88 in 10.0 mi WNW 6.9 mph - N/A   Mostly Cloudy
2:55 PM 55.9 °F - 32.0 °F 40% 29.88 in 10.0 mi WNW 10.4 mph 17.3 mph N/A   Scattered Clouds
3:15 PM 55.8 °F - 28.4 °F 35% 29.89 in 10.0 mi WNW 10.4 mph 17.3 mph N/A   Scattered Clouds
3:35 PM 55.8 °F - 27.5 °F 34% 29.90 in 10.0 mi WNW 12.7 mph 21.9 mph N/A   Clear
3:55 PM 55.6 °F - 27.0 °F 33% 29.91 in 10.0 mi WNW 10.4 mph 20.7 mph N/A   Clear
4:15 PM 54.9 °F - 26.6 °F 34% 29.92 in 10.0 mi West 10.4 mph 17.3 mph N/A   Clear
4:35 PM 54.5 °F - 26.8 °F 34% 29.92 in 10.0 mi WNW 8.1 mph - N/A   Clear
4:55 PM 54.0 °F - 27.3 °F 36% 29.93 in 10.0 mi WNW 8.1 mph - N/A   Clear
5:15 PM 53.2 °F - 27.3 °F 37% 29.94 in 10.0 mi West 3.5 mph - N/A   Clear
5:35 PM 52.3 °F - 27.5 °F 38% 29.95 in 10.0 mi WNW 3.5 mph - N/A   Clear
5:55 PM 51.8 °F - 27.3 °F 39% 29.96 in 10.0 mi West 3.5 mph - N/A   Clear
6:15 PM 51.1 °F - 27.0 °F 39% 29.97 in 10.0 mi WNW 3.5 mph - N/A   Clear
6:35 PM 50.4 °F - 27.0 °F 40% 29.98 in 10.0 mi Calm Calm - N/A   Clear
6:55 PM 50.0 °F - 27.0 °F 41% 29.99 in 10.0 mi Calm Calm - N/A   Clear
7:15 PM 46.4 °F - 29.1 °F 51% 29.99 in 10.0 mi Calm Calm - N/A   Clear
7:35 PM 44.1 °F 42.5 °F 29.8 °F 57% 29.99 in 10.0 mi SSW 3.5 mph - N/A   Clear
7:55 PM 45.3 °F - 28.8 °F 52% 30.00 in 10.0 mi Calm Calm - N/A   Clear
8:15 PM 47.3 °F - 26.8 °F 45% 30.00 in 10.0 mi Calm Calm - N/A   Clear
8:35 PM 47.3 °F - 26.1 °F 44% 30.00 in 10.0 mi Calm Calm - N/A   Clear
8:55 PM 46.8 °F - 25.3 °F 43% 30.01 in 10.0 mi West 3.5 mph - N/A   Clear
9:15 PM 45.7 °F - 25.9 °F 46% 30.01 in 10.0 mi Calm Calm - N/A   Clear
9:35 PM 45.7 °F - 25.0 °F 44% 30.02 in 10.0 mi Calm Calm - N/A   Clear
9:55 PM 46.0 °F 44.8 °F 24.4 °F 43% 30.03 in 10.0 mi West 3.5 mph - N/A   Clear
10:15 PM 44.1 °F - 25.5 °F 48% 30.03 in 10.0 mi Calm Calm - N/A   Clear
10:35 PM 40.5 °F - 27.0 °F 59% 30.03 in 10.0 mi Calm Calm - N/A   Clear
10:55 PM 38.3 °F - 27.5 °F 65% 30.03 in 10.0 mi Calm Calm - N/A   Clear
11:15 PM 36.0 °F 32.1 °F 27.5 °F 71% 30.03 in 10.0 mi South 4.6 mph - N/A   Clear
11:35 PM 38.1 °F 33.7 °F 26.4 °F 63% 30.03 in 10.0 mi SSW 5.8 mph - N/A   Clear
11:55 PM 41.0 °F 37.1 °F 25.2 °F 53% 30.02 in 10.0 mi SSW 5.8 mph - N/A   Clear